SL-16 R/B (25400 NORAD) Tracking and Keplerian Element Data

This shows tracking and keplerian element data for the satellite.

Feedback or suggestion? Click here.




ElementValue
Catalog25400
NameSL-16 R/B
Epoch Orbit5887
Epoch Day322.86385497
Epoch Year2018
RAAN261.2802
Inclination98.5491
Eccentricity0.0009245
Argument of Perigee211.8227
Mean Anonmoly148.2395
Mean Motion14.25434325
Decay Rate-2.9E-07
L11 25400U 98043G 18322.86385497 -.00000029 00000-0 60228-5 0 9996
L22 25400 98.5491 261.2802 0009245 211.8227 148.2395 14.25434325 58876

Live tracking and technical data element details for SL-16 R/B (NORAD 25400). SL-16 R/B can be tracked NOW for your location showing map with azimuth and elevation plus other details from your city location.

Track the satellite on the map from your city or location and see movement details for azimuth, elevation, latitude, longitude, range, height, and movement on the map or in text.







IsCatalogInMostPopularTable: catalog: 25400, numindb: 35
Update: records affected: 1



GetName: 25400 SL-16 R/B

Hit Count: updated at: Tue, 20 Nov 2018 01:05:02 GMT